Flag for Madagascar Weather past 2 weeks in Antananarivo, Madagascar

86 °F

Passing clouds.

Feels Like: 85 °F
Forecast: 59 / 87 °F
Wind: No wind

Location: Antananarivo / Ivato

Current Time: Oct 9, 2015 at 12:26:05 PM

Latest Report: Oct 9, 2015 at 12:00 PM

Visibility: N/A

Pressure: 30.18 "Hg (26.10 "Hg at 1287m altitude)

Humidity: 40%

Dew point: 59 °F

Location of AntananarivoLocation

Historic Weather in Antananarivo — Graph


Antananarivo temperature yesterday

Maximum temperature yesterday: 86 °F (at 2:00 PM)
Minimum temperature yesterday: 54 °F (at 5:17 AM)
Average temperature yesterday: 68 °F

Past Weeks' High & Low Weather Summary

High91 °F (Oct 7, 1:00 PM)100% (Sep 24, 9:00 PM)30.36 "Hg (Sep 24, 9:00 PM)
Low50 °F (Oct 6, 5:30 AM)18% (Oct 7, 1:30 PM)30.04 "Hg (Sep 29, 2:30 PM)
Average65 °F82%30.23 "Hg
* Reported Sep 24 11:00 AM — Oct 9 11:00 AM, Antananarivo, Weather by CustomWeather, © 2015

Note: Actual official high and low records may vary slightly from our data, if they occured in-between our weather recording intervals... More about our weather records


Antananarivo weather history for previous 24 hours

Time TempWeatherWind HumidityBarometerVisibility
11:00 AM
Fri, Oct 9
79 °FPassing clouds.No wind65%30.21 "Hg5 mi
10:30 AM77 °FPassing clouds.No wind69%30.21 "Hg5 mi
10:00 AM75 °FPassing clouds.2 mph74%30.24 "Hg5 mi
9:30 AM72 °FPassing clouds.2 mph83%30.24 "Hg4 mi
9:00 AM68 °FFog.No wind94%30.24 "Hg3 mi
8:30 AM63 °FFog.No wind100%30.24 "Hg2 mi
8:00 AM61 °FFog.No wind100%30.24 "Hg1 mi
7:00 AM59 °FFog.No wind100%30.24 "Hg1 mi
6:30 AM59 °FFog.No wind100%30.24 "Hg1 mi
6:00 AM57 °FFog.No wind100%30.21 "Hg1 mi
5:30 AM57 °FFog.No wind100%30.21 "Hg1 mi
5:00 AM57 °FFog.5 mph100%30.21 "Hg3 mi
4:30 AM57 °FFog.No wind100%30.21 "Hg3 mi
4:00 AM55 °FFog.No wind100%30.21 "Hg4 mi
3:30 AM57 °FPassing clouds.No wind100%30.21 "HgN/A
3:00 AM55 °FPassing clouds.No wind100%30.21 "HgN/A
2:30 AM57 °FPassing clouds.No wind100%30.21 "HgN/A
2:00 AM57 °FPassing clouds.No wind100%30.21 "HgN/A
1:30 AM57 °FPassing clouds.No wind100%30.21 "HgN/A
1:00 AM57 °FPassing clouds.No wind100%30.21 "HgN/A
12:30 AM57 °FPassing clouds.No wind100%30.24 "HgN/A
12:00 AM57 °FPassing clouds.No wind100%30.24 "HgN/A
11:30 PM
Thu, Oct 8
59 °FPassing clouds.No wind100%30.24 "HgN/A
11:00 PM59 °FPassing clouds.No wind100%30.24 "HgN/A
10:30 PM59 °FPassing clouds.3 mph100%30.24 "HgN/A
10:00 PM61 °FPassing clouds.9 mph100%30.24 "HgN/A
9:30 PM63 °FPassing clouds.8 mph100%30.24 "HgN/A
9:00 PM63 °FPassing clouds.8 mph100%30.24 "HgN/A
8:30 PM64 °FPassing clouds.10 mph94%30.24 "HgN/A
8:00 PM66 °FPassing clouds.10 mph88%30.24 "HgN/A
7:30 PM66 °FPassing clouds.8 mph88%30.21 "HgN/A
7:00 PM68 °FPassing clouds.12 mph83%30.21 "HgN/A
6:30 PM72 °FPassing clouds.12 mph73%30.21 "HgN/A
6:00 PM73 °FPassing clouds.10 mph61%30.18 "HgN/A
5:30 PM75 °FPassing clouds.13 mph57%30.15 "HgN/A
5:00 PM79 °FSunny.13 mph51%30.15 "Hg10 mi
4:30 PM81 °FSunny.14 mph51%30.12 "Hg10 mi
4:00 PM84 °FPassing clouds.12 mph43%30.12 "HgN/A
3:30 PM86 °FPassing clouds.9 mph38%30.12 "HgN/A
3:00 PM86 °FPassing clouds.9 mph40%30.12 "HgN/A
2:30 PM86 °FPassing clouds.9 mph38%30.15 "HgN/A
2:00 PM86 °FPassing clouds.7 mph38%30.15 "HgN/A
1:30 PM84 °FPassing clouds.9 mph40%30.15 "HgN/A
1:00 PM84 °FPassing clouds.9 mph43%30.18 "HgN/A
12:30 PM84 °FPassing clouds.10 mph43%30.18 "HgN/A
12:00 PM82 °FPassing clouds.10 mph42%30.21 "HgN/A
Weather by CustomWeather, © 2015

See weather overviewHow to use our weather pages